,

(GMT )
Prerov

Weather History for LKPO - October, 2011

Change the Weather History Date:

Saturday, October 15, 2011

  Actual Average Record
Temperature  
Mean Temperature 39 °F -  
Max Temperature 50 °F - - ()
Min Temperature 28 °F - - ()
Degree Days  
Heating Degree Days 26    
Moisture  
Dew Point 32 °F    
Average Humidity 77    
Maximum Humidity 100    
Minimum Humidity 50    
Precipitation  
Precipitation 0.00 in - - ()
Sea Level Pressure  
Sea Level Pressure 30.51 in    
Wind  
Wind Speed 4 mph ()    
Max Wind Speed 14 mph    
Max Gust Speed -    
Visibility 6.2 miles    
Events      
T = Trace of Precipitation, MM = Missing Value Source: Averaged Metar Reports

Daily Weather History Graph

Daily Weather History Graph

Search for Another Location

Airport or City:

Trip Planner

Search our weather history database for the weather conditions in past years. The results will help you decide how hot, cold, wet, or windy it might be!

Date:

Astronomy

Oct. 15, 2011 Rise Set
Actual Time 7:10 AM CEST 6:00 PM CEST
Civil Twilight 6:38 AM CEST 6:33 PM CEST
Nautical Twilight 6:01 AM CEST 7:10 PM CEST
Astronomical Twilight 5:24 AM CEST 7:47 PM CEST
Moon 7:21 PM CEST (10/15) 10:40 AM CEST (10/15)
Length of Visible Light 11h 54m
Length of Day
10h 50m
Waning Gibbous, 90% of the Moon is Illuminated
Oct 15
Waning Gibbous
Oct 20
Last Quarter
Oct 26
New
Nov 2
First Quarter
Nov 10
Full

Hourly Weather History & Observations

Time (CEST) Temp. Windchill Dew Point Humidity Pressure Visibility Wind Dir Wind Speed Gust Speed Precip Events Conditions
12:00 AM 33.8 °F - 30.2 °F 87% 30.57 in - Variable 2.3 mph - N/A   Clear
1:00 AM 33.8 °F - 32.0 °F 93% 30.57 in - Variable 1.2 mph - N/A   Clear
2:00 AM 28.4 °F 23.3 °F 26.6 °F 93% 30.57 in 6.2 mi WNW 4.6 mph - N/A   Partly Cloudy
3:00 AM 33.8 °F - 32.0 °F 93% 30.54 in 6.2 mi West 2.3 mph - N/A   Mostly Cloudy
4:00 AM 33.8 °F - 30.2 °F 87% 30.54 in - WNW 2.3 mph - N/A   Clear
5:00 AM 32.0 °F - 30.2 °F 93% 30.54 in - Variable 2.3 mph - N/A   Clear
6:00 AM 30.2 °F 25.4 °F 28.4 °F 93% 30.51 in - SSW 4.6 mph - N/A   Clear
7:00 AM 28.4 °F - 28.4 °F 100% 30.54 in - Variable 2.3 mph - N/A   Clear
8:00 AM 30.2 °F - 28.4 °F 93% 30.51 in 6.2 mi Variable 1.2 mph - N/A   Partly Cloudy
9:00 AM 33.8 °F - 32.0 °F 93% 30.54 in - Calm Calm - N/A   Clear
10:00 AM 37.4 °F - 33.8 °F 87% 30.54 in - Variable 1.2 mph - N/A   Clear
11:00 AM 44.6 °F - 35.6 °F 71% 30.54 in 6.2 mi Calm Calm - N/A   Partly Cloudy
12:00 PM 46.4 °F - 35.6 °F 66% 30.51 in 6.2 mi Variable 2.3 mph - N/A   Scattered Clouds
1:00 PM 48.2 °F - 33.8 °F 58% 30.51 in 6.2 mi ENE 13.8 mph - N/A   Scattered Clouds
2:00 PM 50.0 °F - 33.8 °F 54% 30.48 in 6.2 mi NE 11.5 mph - N/A   Scattered Clouds
3:00 PM 50.0 °F - 33.8 °F 54% 30.48 in 6.2 mi NE 11.5 mph - N/A   Scattered Clouds
4:00 PM 50.0 °F - 32.0 °F 50% 30.48 in 6.2 mi ENE 13.8 mph - N/A   Scattered Clouds
5:00 PM 46.4 °F 41.9 °F 30.2 °F 53% 30.48 in - NNE 9.2 mph - N/A   Clear
6:00 PM 42.8 °F 38.0 °F 32.0 °F 66% 30.48 in - NE 8.1 mph - N/A   Clear
7:00 PM 41.0 °F 36.4 °F 32.0 °F 70% 30.48 in - NNE 6.9 mph - N/A   Clear
8:00 PM 39.2 °F 35.0 °F 32.0 °F 75% 30.48 in - NNE 5.8 mph - N/A   Clear
9:00 PM 39.2 °F 35.0 °F 33.8 °F 81% 30.48 in 6.2 mi NNE 5.8 mph - N/A   Mostly Cloudy
10:00 PM 42.8 °F 37.5 °F 33.8 °F 70% 30.48 in 6.2 mi NNE 9.2 mph - N/A   Mostly Cloudy
11:00 PM 42.8 °F - 33.8 °F 70% 30.48 in 6.2 mi North 2.3 mph - N/A   Mostly Cloudy